Weather History for KBFI - October, 2010

Change the Weather History Date:

Sunday, October 17, 2010

  Actual Average Record
Temperature  
Mean Temperature 48 °F -  
Max Temperature 57 °F 58 °F 74 °F (1989)
Min Temperature 39 °F 44 °F 23 °F (1996)
Degree Days  
Heating Degree Days 17    
Moisture  
Dew Point 41 °F    
Average Humidity 79    
Maximum Humidity 93    
Minimum Humidity 53    
Precipitation  
Precipitation 0.00 in - - ()
Sea Level Pressure  
Sea Level Pressure 30.24 in    
Wind  
Wind Speed 2 mph (NW)    
Max Wind Speed 6 mph    
Max Gust Speed -    
Visibility 8 miles    
Events      
Averages and records for this station are not official NWS values.
T = Trace of Precipitation, MM = Missing Value Source: NWS Daily Summary

Daily Weather History Graph

Daily Weather History Graph

Search for Another Location

Airport or City:

Trip Planner

Search our weather history database for the weather conditions in past years. The results will help you decide how hot, cold, wet, or windy it might be!

Date:

Astronomy

Oct. 17, 2010 Rise Set
Actual Time 7:30 AM PDT 6:17 PM PDT
Civil Twilight 6:59 AM PDT 6:48 PM PDT
Nautical Twilight 6:24 AM PDT 7:24 PM PDT
Astronomical Twilight 5:48 AM PDT 7:59 PM PDT
Moon 3:57 PM PDT (10/17) 2:06 AM PDT (10/17)
Length of Visible Light 11h 48m
Length of Day
10h 46m
Waxing Gibbous, 76% of the Moon is Illuminated
Oct 17
Waxing Gibbous
Oct 22
Full
Oct 30
Last Quarter
Nov 5
New
Nov 13
First Quarter

Hourly Weather History & Observations

Time (PDT) Temp. Windchill Dew Point Humidity Pressure Visibility Wind Dir Wind Speed Gust Speed Precip Events Conditions
12:53 AM 45.0 °F - 41.0 °F 86% 30.22 in 9.0 mi Calm Calm - N/A   Clear
1:53 AM 44.1 °F - 39.9 °F 85% 30.22 in 9.0 mi Calm Calm - N/A   Clear
2:53 AM 42.8 °F - 39.2 °F 87% 30.23 in 10.0 mi Calm Calm - N/A   Clear
3:53 AM 39.9 °F 35.8 °F 37.0 °F 89% 30.23 in 10.0 mi ESE 5.8 mph - N/A   Clear
4:03 AM 41.0 °F 37.1 °F 37.4 °F 87% 30.24 in 10.0 mi SE 5.8 mph - N/A   Scattered Clouds
4:12 AM 39.2 °F 35.9 °F 37.4 °F 93% 30.24 in 9.0 mi SE 4.6 mph - N/A   Mostly Cloudy
4:53 AM 42.1 °F - 39.0 °F 89% 30.23 in 10.0 mi Calm Calm - N/A   Overcast
5:53 AM 42.1 °F - 37.9 °F 85% 30.24 in 10.0 mi Calm Calm - N/A   Overcast
6:53 AM 43.0 °F 41.3 °F 39.9 °F 89% 30.25 in 1.0 mi East 3.5 mph - N/A   Overcast
6:55 AM 42.8 °F - 39.2 °F 87% 30.24 in 1.0 mi Calm Calm - N/A   Overcast
7:53 AM 43.0 °F - 39.9 °F 89% 30.25 in 1.0 mi Calm Calm - N/A   Overcast
8:53 AM 43.0 °F - 39.9 °F 89% 30.26 in 1.0 mi Calm Calm - N/A   Overcast
9:53 AM 45.0 °F 43.5 °F 42.1 °F 90% 30.27 in 4.0 mi ESE 3.5 mph - N/A   Overcast
10:40 AM 46.4 °F - 42.8 °F 87% 30.27 in 10.0 mi Calm Calm - N/A   Scattered Clouds
10:53 AM 48.0 °F - 43.0 °F 83% 30.27 in 10.0 mi Calm Calm - N/A   Scattered Clouds
11:53 AM 51.1 °F - 42.1 °F 71% 30.27 in 10.0 mi NW 4.6 mph - N/A   Clear
12:53 PM 53.1 °F - 43.0 °F 69% 30.26 in 10.0 mi West 4.6 mph - N/A   Clear
1:53 PM 55.0 °F - 42.1 °F 62% 30.24 in 10.0 mi NW 4.6 mph - N/A   Partly Cloudy
2:53 PM 55.9 °F - 42.1 °F 60% 30.22 in 10.0 mi WNW 4.6 mph - N/A   Clear
3:53 PM 57.0 °F - 39.9 °F 53% 30.20 in 10.0 mi NW 5.8 mph - N/A   Clear
4:53 PM 55.9 °F - 42.1 °F 60% 30.20 in 10.0 mi Variable 5.8 mph - N/A   Clear
5:53 PM 54.0 °F - 41.0 °F 62% 30.21 in 10.0 mi NW 5.8 mph - N/A   Clear
6:53 PM 52.0 °F - 42.1 °F 69% 30.22 in 10.0 mi Calm Calm - N/A   Partly Cloudy
7:53 PM 51.1 °F - 42.1 °F 71% 30.22 in 10.0 mi Calm Calm - N/A   Clear
8:53 PM 48.9 °F - 41.0 °F 74% 30.22 in 10.0 mi Calm Calm - N/A   Clear
9:53 PM 48.0 °F - 42.1 °F 80% 30.24 in 10.0 mi Calm Calm - N/A   Clear
10:53 PM 46.9 °F - 42.1 °F 83% 30.25 in 10.0 mi Calm Calm - N/A   Clear
11:53 PM 48.0 °F - 43.0 °F 83% 30.26 in 10.0 mi Calm Calm - N/A   Clear